WX2DX-2 Weather Reports


Display with metric or nautical units.
time (UTC)temp
F
wind
direction
speed
MPH
gust
MPH
rain 1hr
in
rain 24hr
in
rain mn
in
humidity
%
barometer
mb
20260508181509 59 271 6.0 21.0 0.00 0.02 0.00 50 1010.4
20260508180101 60 271 10.0 18.0 0.00 0.02 0.00 50 1010.9
20260508174601 60 274 6.0 13.0 0.00 0.02 0.00 53 1011.2
20260508173055 59 258 6.0 13.0 0.00 0.02 0.00 58 1011.3
20260508171553 56 333 1.0 7.0 0.00 0.02 0.00 61 1011.6
20260508170052 56 259 7.0 15.0 0.00 0.02 0.00 56 1011.8
20260508164555 57 234 5.0 15.0 0.00 0.02 0.00 53 1011.4
20260508163051 57 307 8.0 15.0 0.00 0.02 0.00 50 1011.5
20260508161556 59 250 7.0 15.0 0.00 0.02 0.00 53 1011.7
20260508160048 57 337 5.0 13.0 0.00 0.02 0.00 53 1011.7
20260508154606 57 265 5.0 22.0 0.00 0.02 0.00 55 1011.9
20260508153046 58 310 4.0 18.0 0.00 0.02 0.00 58 1011.7
20260508151544 57 343 9.0 22.0 0.00 0.02 0.00 55 1011.6
20260508150055 57 219 6.0 21.0 0.00 0.02 0.00 54 1011.5
20260508144538 56 225 12.0 24.0 0.00 0.02 0.00 55 1011.6
20260508143049 56 215 11.0 19.0 0.00 0.02 0.00 53 1011.6
20260508141533 55 229 7.0 19.0 0.00 0.02 0.00 60 1011.9
20260508140030 54 232 5.0 13.0 0.00 0.02 0.00 62 1011.9
20260508134524 52 194 5.0 11.0 0.00 0.02 0.00 63 1011.9
20260508133020 51 216 5.0 11.0 0.00 0.02 0.00 63 1012.2
20260508131515 49 232 5.0 10.0 0.00 0.02 0.00 67 1012.3
20260508130011 47 234 2.0 6.0 0.00 0.02 0.00 74 1012.6
20260508124506 45 265 3.0 5.0 0.00 0.02 0.00 78 1012.5
20260508123054 42 248 2.0 4.0 0.00 0.02 0.00 81 1012.5
20260508121550 41 269 1.0 4.0 0.00 0.02 0.00 87 1012.6
20260508120050 40 199 0.0 1.0 0.00 0.02 0.00 90 1012.5
20260508114549 39 199 0.0 0.0 0.00 0.02 0.00 90 1012.5
20260508113049 38 61 0.0 1.0 0.00 0.02 0.00 91 1012.7
20260508111559 36 199 0.0 2.0 0.00 0.02 0.00 91 1012.7
20260508110047 34 209 0.0 1.0 0.00 0.02 0.00 92 1012.7
20260508104544 34 213 0.0 0.0 0.00 0.02 0.00 91 1012.5
20260508103048 34 213 0.0 1.0 0.00 0.02 0.00 92 1012.4
20260508101544 33 202 0.0 2.0 0.00 0.02 0.00 94 1012.3
20260508100037 32 259 0.0 0.0 0.00 0.02 0.00 92 1012.2
20260508094535 33 259 0.0 0.0 0.00 0.02 0.00 92 1012.0
20260508093037 33 259 0.0 0.0 0.00 0.02 0.00 92 1012.0
20260508091533 33 259 0.0 0.0 0.00 0.02 0.00 91 1011.9
20260508090035 33 259 0.0 0.0 0.00 0.02 0.00 91 1011.9
20260508084529 33 259 0.0 0.0 0.00 0.02 0.00 90 1011.8
20260508083027 34 259 0.0 0.0 0.00 0.02 0.00 89 1011.8
20260508081527 34 259 0.0 1.0 0.00 0.02 0.00 89 1011.8
20260508080037 35 259 0.0 0.0 0.00 0.02 0.00 89 1011.9
20260508074521 35 259 0.0 1.0 0.00 0.02 0.00 88 1011.8
20260508073019 36 259 0.0 1.0 0.00 0.02 0.00 87 1011.8
20260508071515 37 259 1.0 2.0 0.00 0.02 0.00 86 1011.7
20260508070020 38 259 0.0 3.0 0.00 0.02 0.00 83 1011.9
20260508064529 40 232 0.0 3.0 0.00 0.02 0.00 81 1012.1
20260508063010 40 254 2.0 4.0 0.00 0.02 0.00 78 1012.0
20260508061512 40 243 1.0 5.0 0.00 0.02 0.00 80 1012.0
20260508060006 39 257 2.0 5.0 0.00 0.02 0.00 83 1011.9
20260508054503 38 308 0.0 7.0 0.00 0.02 0.00 89 1012.0
20260508053002 37 279 0.0 4.0 0.00 0.02 0.00 91 1012.2
20260508051612 37 241 0.0 2.0 0.00 0.02 0.00 91 1012.3
20260508050111 38 241 0.0 2.0 0.00 0.02 0.00 91 1012.3
20260508044557 38 241 0.0 3.0 0.00 0.02 0.00 91 1012.2
20260508043052 38 319 1.0 3.0 0.00 0.02 0.00 91 1012.1
20260508041554 38 350 0.0 0.0 0.00 0.02 0.00 90 1011.9
20260508040054 39 350 0.0 0.0 0.00 0.02 0.00 89 1011.6
20260508034548 40 350 0.0 0.0 0.00 0.02 0.02 87 1011.7
20260508033047 41 350 0.0 0.0 0.00 0.02 0.02 84 1011.5
20260508031545 42 350 0.0 0.0 0.00 0.02 0.02 83 1011.4
20260508030051 43 348 0.0 0.0 0.00 0.02 0.02 81 1011.4
20260508024544 44 343 0.0 1.0 0.02 0.02 0.02 79 1011.4
20260508023044 45 344 1.0 6.0 0.02 0.02 0.02 75 1011.3
20260508021543 46 336 2.0 14.0 0.02 0.02 0.02 73 1011.1
20260508020042 49 24 6.0 24.0 0.02 0.02 0.02 70 1010.8
20260508014542 52 259 3.0 9.0 0.00 0.00 0.00 52 1010.2
20260508013042 53 263 5.0 11.0 0.00 0.00 0.00 50 1009.8
20260508011541 53 258 4.0 9.0 0.00 0.00 0.00 49 1009.5
20260508010041 54 247 2.0 10.0 0.00 0.00 0.00 48 1009.1
20260508004547 54 263 3.0 6.0 0.00 0.00 0.00 48 1009.0
20260508003047 55 277 5.0 12.0 0.00 0.00 0.00 45 1008.8
20260508001541 56 254 5.0 17.0 0.00 0.00 0.00 45 1008.7
20260508000038 56 281 3.0 9.0 0.00 0.00 0.00 47 1008.5
20260507234550 56 246 3.0 10.0 0.00 0.00 0.00 45 1008.3
20260507233049 56 241 5.0 10.0 0.00 0.00 0.00 46 1008.2
20260507231538 56 257 2.0 6.0 0.00 0.00 0.00 47 1008.0
20260507230037 57 309 4.0 10.0 0.00 0.00 0.00 46 1008.1
20260507224537 57 260 6.0 10.0 0.00 0.00 0.00 45 1008.0
20260507223048 57 284 2.0 13.0 0.00 0.00 0.00 45 1007.9
20260507221536 57 267 4.0 11.0 0.00 0.00 0.00 46 1007.7
20260507220035 58 235 3.0 10.0 0.00 0.00 0.00 45 1008.0
20260507214527 58 278 7.0 14.0 0.00 0.00 0.00 43 1007.9
20260507213031 58 267 5.0 13.0 0.00 0.00 0.00 44 1007.9
20260507211533 59 265 4.0 10.0 0.00 0.00 0.00 45 1007.8
20260507210029 59 273 5.0 12.0 0.00 0.00 0.00 44 1007.8
20260507204523 58 333 2.0 11.0 0.00 0.00 0.00 48 1007.9
20260507203022 58 264 4.0 13.0 0.00 0.00 0.00 44 1008.1
20260507201518 0 0.0 0.0 0.00 0.00 0.00 1008.2
20260507200015 59 274 7.0 13.0 0.00 0.00 0.00 45 1008.2
20260507194528 60 321 6.0 14.0 0.00 0.00 0.00 43 1008.2
20260507193015 59 263 7.0 13.0 0.00 0.00 0.00 46 1008.4
20260507191511 58 267 12.0 23.0 0.00 0.00 0.00 41 1008.5
20260507190013 60 243 4.0 12.0 0.00 0.00 0.00 44 1008.6
20260507184508 58 325 1.0 11.0 0.00 0.00 0.00 48 1008.8
20260507183007 58 225 6.0 13.0 0.00 0.00 0.00 46 1008.9